Tracking 25709 objects as of 24-May-2022
HD Live streaming from Space Station
objects crossing your sky now

SPACEBEE-93

Track SPACEBEE-93 now!
10-day predictions


NORAD ID: 48939
Int'l Code: 2021-059BN
Perigee: 492.1 km
Apogee: 513.9 km
Inclination: 97.5 °
Period: 94.5 minutes
Semi major axis: 6874 km
RCS: Unknown
Launch date: June 30, 2021
Source: United States (US)
Launch site: AIR FORCE EASTERN TEST RANGE (AFETR)
aabbcc
Your satellite tracking list
Your tracking list is empty




NASA's NSSDC Master Catalog

Two Line Element Set (TLE):
1 48939U 21059BN  22143.35218825  .00044960  00000-0  18819-2 0  9998
2 48939  97.5406 274.6738 0015856 187.6084 172.4915 15.23302766 50258
Source of the keplerian elements: AFSPC